Time,TemperatureF,DewpointF,PressureIn,WindDirection,WindDirectionDegrees,WindSpeedMPH,WindSpeedGustMPH,Humidity,HourlyPrecipIn,Conditions,Clouds,dailyrainin,SoftwareType,DateUTC
2013-02-02 00:11:00,15.7,10.0,30.32,SW,215,9.0,12.0,78,0.00,,,0.00,weatherlink.com 1.10,2013-02-02 05:11:00,
2013-02-02 00:28:00,15.7,10.0,30.32,WSW,242,4.0,12.0,79,0.00,,,0.00,weatherlink.com 1.10,2013-02-02 05:28:00,
2013-02-02 00:42:00,15.8,10.0,30.31,SSW,207,4.0,12.0,79,0.00,,,0.00,weatherlink.com 1.10,2013-02-02 05:42:00,
2013-02-02 00:58:00,16.1,11.0,30.31,SSW,202,7.0,12.0,79,0.00,,,0.00,weatherlink.com 1.10,2013-02-02 05:58:00,
2013-02-02 01:13:00,16.3,11.0,30.31,SSW,205,6.0,10.0,80,0.00,,,0.00,weatherlink.com 1.10,2013-02-02 06:13:00,
2013-02-02 01:28:00,16.6,11.0,30.30,SW,216,8.0,10.0,80,0.00,,,0.00,weatherlink.com 1.10,2013-02-02 06:28:00,
2013-02-02 01:44:00,16.9,12.0,30.29,SW,223,6.0,10.0,80,0.00,,,0.00,weatherlink.com 1.10,2013-02-02 06:44:00,
2013-02-02 01:59:00,17.2,12.0,30.29,SSW,210,7.0,9.0,79,0.00,,,0.00,weatherlink.com 1.10,2013-02-02 06:59:00,
2013-02-02 02:14:00,17.6,12.0,30.29,SW,223,5.0,9.0,79,0.00,,,0.00,weatherlink.com 1.10,2013-02-02 07:14:00,
2013-02-02 02:30:00,17.9,13.0,30.29,WSW,245,6.0,12.0,80,0.00,,,0.00,weatherlink.com 1.10,2013-02-02 07:30:00,
2013-02-02 02:45:00,17.9,13.0,30.29,SW,230,9.0,9.0,81,0.00,,,0.00,weatherlink.com 1.10,2013-02-02 07:45:00,
2013-02-02 03:00:00,17.9,14.0,30.29,SSW,202,3.0,12.0,84,0.00,,,0.00,weatherlink.com 1.10,2013-02-02 08:00:00,
2013-02-02 03:15:00,17.9,14.0,30.28,SW,234,7.0,11.0,85,0.00,,,0.00,weatherlink.com 1.10,2013-02-02 08:15:00,
2013-02-02 03:31:00,18.0,15.0,30.28,SW,227,5.0,10.0,86,0.00,,,0.00,weatherlink.com 1.10,2013-02-02 08:31:00,
2013-02-02 03:46:00,18.1,15.0,30.28,WSW,238,5.0,10.0,87,0.00,,,0.00,weatherlink.com 1.10,2013-02-02 08:46:00,
2013-02-02 04:02:00,18.1,15.0,30.27,SW,217,5.0,10.0,87,0.00,,,0.00,weatherlink.com 1.10,2013-02-02 09:02:00,
2013-02-02 04:17:00,18.1,15.0,30.26,SW,224,5.0,10.0,88,0.00,,,0.00,weatherlink.com 1.10,2013-02-02 09:17:00,
2013-02-02 04:32:00,18.2,15.0,30.26,SW,223,6.0,13.0,88,0.00,,,0.00,weatherlink.com 1.10,2013-02-02 09:32:00,
2013-02-02 04:47:00,18.4,16.0,30.25,South,184,5.0,10.0,89,0.00,,,0.00,weatherlink.com 1.10,2013-02-02 09:47:00,
2013-02-02 05:02:00,18.1,15.0,30.24,SSW,211,5.0,13.0,88,0.00,,,0.00,weatherlink.com 1.10,2013-02-02 10:02:00,
2013-02-02 05:18:00,18.0,15.0,30.21,SSE,167,6.0,11.0,88,0.00,,,0.00,weatherlink.com 1.10,2013-02-02 10:18:00,
2013-02-02 05:32:00,17.9,15.0,30.20,South,178,7.0,14.0,88,0.00,,,0.00,weatherlink.com 1.10,2013-02-02 10:32:00,
2013-02-02 05:47:00,17.9,15.0,30.19,SSW,200,5.0,14.0,88,0.00,,,0.00,weatherlink.com 1.10,2013-02-02 10:47:00,
2013-02-02 06:05:00,18.1,15.0,30.18,South,188,13.0,16.0,89,0.00,,,0.00,weatherlink.com 1.10,2013-02-02 11:05:00,
2013-02-02 06:18:00,18.4,16.0,30.18,SSW,205,7.0,17.0,89,0.00,,,0.00,weatherlink.com 1.10,2013-02-02 11:18:00,
2013-02-02 06:34:00,18.6,16.0,30.17,SSW,195,7.0,17.0,88,0.00,,,0.00,weatherlink.com 1.10,2013-02-02 11:34:00,
2013-02-02 06:49:00,18.7,16.0,30.17,SSW,208,10.0,13.0,89,0.00,,,0.00,weatherlink.com 1.10,2013-02-02 11:49:00,
2013-02-02 07:04:00,18.8,16.0,30.16,SSW,199,6.0,14.0,89,0.00,,,0.00,weatherlink.com 1.10,2013-02-02 12:04:00,
2013-02-02 07:20:00,18.9,17.0,30.15,SW,225,7.0,19.0,90,0.00,,,0.00,weatherlink.com 1.10,2013-02-02 12:20:00,
2013-02-02 07:35:00,19.3,17.0,30.15,South,179,12.0,17.0,89,0.00,,,0.00,weatherlink.com 1.10,2013-02-02 12:35:00,
2013-02-02 07:52:00,19.5,17.0,30.15,SW,221,6.0,11.0,88,0.00,,,0.00,weatherlink.com 1.10,2013-02-02 12:52:00,
2013-02-02 08:06:00,19.5,17.0,30.14,SSW,196,8.0,14.0,88,0.00,,,0.00,weatherlink.com 1.10,2013-02-02 13:06:00,
2013-02-02 08:21:00,19.6,17.0,30.14,SSW,211,7.0,15.0,88,0.00,,,0.00,weatherlink.com 1.10,2013-02-02 13:21:00,
2013-02-02 08:37:00,20.0,17.0,30.14,SSW,213,7.0,13.0,87,0.00,,,0.00,weatherlink.com 1.10,2013-02-02 13:37:00,
2013-02-02 08:51:00,20.2,17.0,30.13,SSW,210,6.0,10.0,87,0.00,,,0.00,weatherlink.com 1.10,2013-02-02 13:51:00,
2013-02-02 09:07:00,20.5,17.0,30.13,SW,221,3.0,14.0,87,0.00,,,0.00,weatherlink.com 1.10,2013-02-02 14:07:00,
2013-02-02 09:22:00,21.0,18.0,30.13,WSW,250,7.0,13.0,87,0.00,,,0.00,weatherlink.com 1.10,2013-02-02 14:22:00,
2013-02-02 09:37:00,21.3,18.0,30.12,SSW,205,11.0,11.0,87,0.00,,,0.00,weatherlink.com 1.10,2013-02-02 14:37:00,
2013-02-02 09:52:00,21.6,18.0,30.12,SW,227,6.0,13.0,87,0.00,,,0.00,weatherlink.com 1.10,2013-02-02 14:52:00,
2013-02-02 10:08:00,21.8,19.0,30.12,WSW,256,7.0,13.0,88,0.00,,,0.00,weatherlink.com 1.10,2013-02-02 15:08:00,
2013-02-02 10:22:00,22.4,19.0,30.11,SSW,213,7.0,10.0,88,0.00,,,0.00,weatherlink.com 1.10,2013-02-02 15:22:00,
2013-02-02 10:39:00,22.9,20.0,30.10,SW,219,7.0,13.0,88,0.00,,,0.00,weatherlink.com 1.10,2013-02-02 15:39:00,
2013-02-02 10:54:00,23.2,20.0,30.10,SW,228,7.0,14.0,87,0.00,,,0.00,weatherlink.com 1.10,2013-02-02 15:54:00,
2013-02-02 11:08:00,23.3,20.0,30.09,SW,217,10.0,14.0,88,0.00,,,0.00,weatherlink.com 1.10,2013-02-02 16:08:00,
2013-02-02 11:24:00,23.4,21.0,30.08,SW,215,7.0,11.0,89,0.00,,,0.00,weatherlink.com 1.10,2013-02-02 16:24:00,
2013-02-02 11:39:00,23.8,21.0,30.08,SW,223,9.0,13.0,89,0.00,,,0.00,weatherlink.com 1.10,2013-02-02 16:39:00,
2013-02-02 11:55:00,24.3,22.0,30.07,SSW,202,4.0,13.0,89,0.00,,,0.00,weatherlink.com 1.10,2013-02-02 16:55:00,
2013-02-02 12:09:00,24.6,22.0,30.07,WSW,239,5.0,13.0,89,0.00,,,0.00,weatherlink.com 1.10,2013-02-02 17:09:00,
2013-02-02 12:25:00,25.1,22.0,30.05,SW,231,7.0,13.0,88,0.00,,,0.00,weatherlink.com 1.10,2013-02-02 17:25:00,
2013-02-02 12:41:00,25.4,22.0,30.05,WSW,252,6.0,14.0,87,0.00,,,0.00,weatherlink.com 1.10,2013-02-02 17:41:00,
2013-02-02 12:57:00,25.6,22.0,30.04,West,269,3.0,15.0,87,0.00,,,0.00,weatherlink.com 1.10,2013-02-02 17:57:00,
2013-02-02 13:12:00,25.7,22.0,30.04,West,269,6.0,14.0,86,0.00,,,0.00,weatherlink.com 1.10,2013-02-02 18:12:00,
2013-02-02 13:26:00,26.0,23.0,30.04,WNW,292,6.0,14.0,87,0.00,,,0.00,weatherlink.com 1.10,2013-02-02 18:26:00,
2013-02-02 13:42:00,25.9,23.0,30.03,WNW,288,6.0,14.0,87,0.00,,,0.00,weatherlink.com 1.10,2013-02-02 18:42:00,
2013-02-02 13:56:00,25.9,23.0,30.03,West,279,12.0,12.0,88,0.00,,,0.00,weatherlink.com 1.10,2013-02-02 18:56:00,
2013-02-02 14:12:00,25.8,23.0,30.03,WNW,283,7.0,15.0,87,0.00,,,0.00,weatherlink.com 1.10,2013-02-02 19:12:00,
2013-02-02 14:28:00,25.9,23.0,30.02,WNW,282,6.0,12.0,87,0.00,,,0.00,weatherlink.com 1.10,2013-02-02 19:28:00,
2013-02-02 14:42:00,25.9,23.0,30.02,WSW,251,7.0,11.0,87,0.00,,,0.00,weatherlink.com 1.10,2013-02-02 19:42:00,
2013-02-02 14:57:00,25.8,23.0,30.03,WNW,294,3.0,12.0,88,0.00,,,0.00,weatherlink.com 1.10,2013-02-02 19:57:00,
2013-02-02 15:13:00,25.9,23.0,30.03,West,272,5.0,10.0,88,0.00,,,0.00,weatherlink.com 1.10,2013-02-02 20:13:00,
2013-02-02 15:28:00,25.9,23.0,30.03,WNW,282,9.0,9.0,87,0.00,,,0.00,weatherlink.com 1.10,2013-02-02 20:28:00,
2013-02-02 15:45:00,25.9,23.0,30.03,NW,310,5.0,9.0,87,0.00,,,0.00,weatherlink.com 1.10,2013-02-02 20:45:00,
2013-02-02 15:58:00,26.0,23.0,30.03,WNW,294,6.0,10.0,87,0.00,,,0.00,weatherlink.com 1.10,2013-02-02 20:58:00,
2013-02-02 16:14:00,26.0,22.0,30.03,West,281,4.0,10.0,86,0.00,,,0.00,weatherlink.com 1.10,2013-02-02 21:14:00,
2013-02-02 16:30:00,26.0,22.0,30.04,West,270,6.0,10.0,86,0.00,,,0.00,weatherlink.com 1.10,2013-02-02 21:30:00,
2013-02-02 16:44:00,26.0,23.0,30.04,West,265,3.0,10.0,87,0.00,,,0.00,weatherlink.com 1.10,2013-02-02 21:44:00,
2013-02-02 17:01:00,26.0,23.0,30.04,West,259,4.0,11.0,87,0.00,,,0.00,weatherlink.com 1.10,2013-02-02 22:01:00,
2013-02-02 17:17:00,25.9,23.0,30.05,WNW,296,8.0,9.0,88,0.00,,,0.00,weatherlink.com 1.10,2013-02-02 22:17:00,
2013-02-02 17:31:00,25.8,23.0,30.05,West,281,5.0,8.0,89,0.00,,,0.00,weatherlink.com 1.10,2013-02-02 22:31:00,
2013-02-02 17:46:00,25.7,23.0,30.05,WSW,245,5.0,8.0,90,0.00,,,0.00,weatherlink.com 1.10,2013-02-02 22:46:00,
2013-02-02 18:02:00,25.6,23.0,30.05,West,277,3.0,6.0,90,0.00,,,0.00,weatherlink.com 1.10,2013-02-02 23:02:00,
2013-02-02 18:16:00,25.4,23.0,30.05,West,273,5.0,8.0,91,0.00,,,0.00,weatherlink.com 1.10,2013-02-02 23:16:00,
2013-02-02 18:31:00,25.2,23.0,30.05,West,273,5.0,7.0,91,0.00,,,0.00,weatherlink.com 1.10,2013-02-02 23:31:00,
2013-02-02 18:47:00,25.2,23.0,30.05,West,261,5.0,7.0,91,0.00,,,0.00,weatherlink.com 1.10,2013-02-02 23:47:00,
2013-02-02 19:02:00,25.1,23.0,30.06,West,269,3.0,6.0,92,0.00,,,0.00,weatherlink.com 1.10,2013-02-03 00:02:00,
2013-02-02 19:17:00,24.9,23.0,30.06,NW,312,10.0,11.0,92,0.00,,,0.00,weatherlink.com 1.10,2013-02-03 00:17:00,
2013-02-02 19:33:00,23.6,21.0,30.06,NNW,330,3.0,8.0,89,0.00,,,0.00,weatherlink.com 1.10,2013-02-03 00:33:00,
2013-02-02 19:47:00,23.0,20.0,30.06,North,351,3.0,6.0,89,0.00,,,0.00,weatherlink.com 1.10,2013-02-03 00:47:00,
2013-02-02 20:03:00,22.7,20.0,30.07,NNE,15,1.0,5.0,90,0.00,,,0.00,weatherlink.com 1.10,2013-02-03 01:03:00,
2013-02-02 20:18:00,22.4,20.0,30.08,North,5,6.0,8.0,89,0.00,,,0.00,weatherlink.com 1.10,2013-02-03 01:18:00,
2013-02-02 20:34:00,22.1,19.0,30.08,North,360,1.0,5.0,89,0.00,,,0.00,weatherlink.com 1.10,2013-02-03 01:34:00,
2013-02-02 20:49:00,21.9,19.0,30.08,North,360,1.0,4.0,89,0.00,,,0.00,weatherlink.com 1.10,2013-02-03 01:49:00,
2013-02-02 21:05:00,21.7,19.0,30.08,NNE,18,1.0,4.0,89,0.00,,,0.00,weatherlink.com 1.10,2013-02-03 02:05:00,
2013-02-02 21:19:00,21.5,19.0,30.08,North,360,1.0,5.0,89,0.00,,,0.00,weatherlink.com 1.10,2013-02-03 02:19:00,
2013-02-02 21:37:00,21.4,19.0,30.08,North,355,1.0,5.0,89,0.00,,,0.00,weatherlink.com 1.10,2013-02-03 02:37:00,
2013-02-02 21:50:00,21.3,18.0,30.08,North,355,2.0,3.0,88,0.00,,,0.00,weatherlink.com 1.10,2013-02-03 02:50:00,
2013-02-02 22:06:00,21.3,18.0,30.08,North,355,0.0,2.0,88,0.00,,,0.00,weatherlink.com 1.10,2013-02-03 03:06:00,
2013-02-02 22:22:00,21.1,18.0,30.08,North,355,0.0,4.0,88,0.00,,,0.00,weatherlink.com 1.10,2013-02-03 03:22:00,
2013-02-02 22:37:00,20.9,18.0,30.08,North,355,2.0,3.0,88,0.00,,,0.00,weatherlink.com 1.10,2013-02-03 03:37:00,
2013-02-02 22:52:00,20.8,18.0,30.07,North,360,1.0,4.0,88,0.00,,,0.00,weatherlink.com 1.10,2013-02-03 03:52:00,
2013-02-02 23:07:00,20.6,17.0,30.07,North,360,3.0,3.0,87,0.00,,,0.00,weatherlink.com 1.10,2013-02-03 04:07:00,
2013-02-02 23:21:00,20.5,18.0,30.07,North,360,1.0,4.0,88,0.00,,,0.00,weatherlink.com 1.10,2013-02-03 04:21:00,
2013-02-02 23:37:00,20.3,17.0,30.07,North,360,0.0,1.0,88,0.00,,,0.00,weatherlink.com 1.10,2013-02-03 04:37:00,
2013-02-02 23:51:00,20.3,17.0,30.07,North,360,0.0,2.0,88,0.00,,,0.00,weatherlink.com 1.10,2013-02-03 04:51:00,